424P/La Sagra (2021)

Japanese version
Home page
Updated on September 18, 2021

---------------------------------------------------------------------

* Profile

Designation 424P/2021 L5
Recovery Date June 6 and July 3, 2021
Magnitude 20.6 mag, 19.0 mag
Recoverer Pan-STARRS 1 telescope (Haleakala), Hidetaka Sato (Tokyo, Japan)

* Pictures

* Orbital Elements

Epoch 2021 Nov. 2.0 TT = JDT 2459520.5                                          
T 2021 Oct. 31.63292 TT                                 Rudenko                 
q   1.3626943            (2000.0)            P               Q                  
n   0.10624133     Peri.  312.47369     +0.99137933     -0.05766487             
a   4.4150985      Node    51.17840     +0.10761182     +0.87060420             
e   0.6913558      Incl.    8.68538     -0.07474431     +0.48859296             
P   9.28                                                                        
From 399 observations 2012 Sept. 23-2021 July 7, mean residual 0".7.            

* Finding Charts

* Magnitudes Graph

        H - 16.0  G = 0.15

---------------------------------------------------------------------

The orbital elements are published on M.P.E.C. 2021-N47.
The charts are made with StellaNavigator Ver.10 (AstroArts).
The magnitudes graphs are made with Comet for Windows.

---------------------------------------------------------------------

Copyright(C) Seiichi Yoshida (comet@aerith.net). All rights reserved.